User: anonymous   Login
Location: Mentone
(34.5413°N, 85.5351°W)
Time: 22:21:05
(UTC-05:00)
Language:

Tiros 1 despin weight - Orbit

View from above orbital plane
View from above orbital plane
View from above satellite
View from above satellite

Ground track
Ground track

The orbit data is extracted from the following two-line orbital elements,

1 00115U 60002D   16120.62578892  .00000451  00000-0  82178-4 0  9992
2 00115  48.1672 330.5620 0034715  77.5953 282.8841 14.82753460988842
Epoch (UTC): 29 April 2016 15:01:08
Eccentricity: 0.0034715
inclination: 48.1672°
perigee height: 596 km
apogee height: 645 km
right ascension of ascending node: 330.5620°
argument of perigee: 77.5953°
revolutions per day: 14.82753460
mean anomaly at epoch: 282.8841°
orbit number at epoch: 98884

The dashed part of the orbit path shows where the satellite is in the earth's shadow,  

DLR